Weather History for Wasilla, AK

Change the Weather History Date:

Tuesday, August 19, 2014

  Actual Average Record
Temperature  
Mean Temperature 58 °F -  
Max Temperature 71 °F 67 °F 74 °F (1968)
Min Temperature 46 °F 46 °F 34 °F (1969)
Degree Days  
Heating Degree Days 6    
Growing Degree Days 8 (Base 50)    
Moisture  
Dew Point 46 °F    
Average Humidity 65    
Maximum Humidity 82    
Minimum Humidity 43    
Precipitation  
Precipitation 0.00 in - - ()
Sea Level Pressure  
Sea Level Pressure 29.97 in    
Wind  
Wind Speed 1 mph (NE)    
Max Wind Speed 7 mph    
Max Gust Speed -    
Visibility 10 miles    
Events      
Averages and records for this station are not official NWS values.
T = Trace of Precipitation, MM = Missing Value Source: NWS Daily Summary

Daily Weather History Graph

Daily Weather History Graph

Search for Another Location

Airport:

Trip Planner

Search our weather history database for the weather conditions in past years. The results will help you decide how hot, cold, wet, or windy it might be!

Date:

Astronomy

Aug. 19, 2014 Rise Set
Actual Time 6:15 AM AKDT 9:45 PM AKDT
Civil Twilight 5:22 AM AKDT 10:38 PM AKDT
Nautical Twilight 4:02 AM AKDT 11:56 PM AKDT
Astronomical Twilight 2:34 AM AKDT 1:29 AM AKDT
Moon 12:42 AM AKDT (8/19) 6:25 PM AKDT (8/19)
Length of Visible Light 17h 16m
Length of Day
15h 30m
Waning Crescent, 28% of the Moon is Illuminated
Aug 19
Waning Crescent
Aug 25
New
Sep 2
First Quarter
Sep 8
Full
Sep 15
Last Quarter

Hourly Weather History & Observations

Time (AKDT) Temp. Dew Point Humidity Pressure Visibility Wind Dir Wind Speed Gust Speed Precip Events Conditions
12:16 AM 51.8 °F 46.4 °F 82% 29.97 in 10.0 mi Calm Calm - N/A   Overcast
12:36 AM 51.8 °F 46.4 °F 82% 29.98 in 10.0 mi Calm Calm - N/A   Mostly Cloudy
12:56 AM 51.8 °F 46.4 °F 82% 29.98 in 10.0 mi Calm Calm - N/A   Scattered Clouds
1:16 AM 51.8 °F 44.6 °F 76% 29.98 in 10.0 mi Calm Calm - N/A   Scattered Clouds
1:36 AM 51.8 °F 46.4 °F 82% 29.98 in 10.0 mi ENE 3.5 mph - N/A   Mostly Cloudy
1:56 AM 51.8 °F 44.6 °F 76% 29.99 in 10.0 mi Calm Calm - N/A   Overcast
2:16 AM 51.8 °F 44.6 °F 76% 29.99 in 10.0 mi Calm Calm - N/A   Mostly Cloudy
2:36 AM 51.8 °F 44.6 °F 76% 29.99 in 10.0 mi Calm Calm - N/A   Overcast
2:56 AM 51.8 °F 44.6 °F 76% 29.99 in 10.0 mi Calm Calm - N/A   Mostly Cloudy
3:16 AM 50.0 °F 44.6 °F 82% 29.99 in 10.0 mi Calm Calm - N/A   Clear
3:36 AM 50.0 °F 44.6 °F 82% 29.99 in 10.0 mi Calm Calm - N/A   Mostly Cloudy
3:56 AM 50.0 °F 42.8 °F 76% 29.99 in 10.0 mi Calm Calm - N/A   Mostly Cloudy
4:16 AM 48.2 °F 42.8 °F 82% 29.99 in 10.0 mi Calm Calm - N/A   Partly Cloudy
4:36 AM 48.2 °F 42.8 °F 82% 29.99 in 10.0 mi Calm Calm - N/A   Clear
4:56 AM 48.2 °F 42.8 °F 82% 29.99 in 10.0 mi Calm Calm - N/A   Clear
5:16 AM 46.4 °F 41.0 °F 81% 29.99 in 10.0 mi Calm Calm - N/A   Clear
5:36 AM 48.2 °F 42.8 °F 82% 29.99 in 10.0 mi East 3.5 mph - N/A   Mostly Cloudy
5:56 AM 48.2 °F 42.8 °F 82% 29.99 in 10.0 mi Calm Calm - N/A   Overcast
6:16 AM 48.2 °F 42.8 °F 82% 30.00 in 10.0 mi Calm Calm - N/A   Overcast
6:36 AM 48.2 °F 42.8 °F 82% 30.00 in 10.0 mi Calm Calm - N/A   Overcast
6:56 AM 48.2 °F 42.8 °F 82% 29.99 in 10.0 mi Calm Calm - N/A   Overcast
7:16 AM 48.2 °F 42.8 °F 82% 29.99 in 10.0 mi Calm Calm - N/A   Overcast
7:36 AM 50.0 °F 44.6 °F 82% 29.99 in 10.0 mi Calm Calm - N/A   Mostly Cloudy
7:56 AM 51.8 °F 44.6 °F 76% 29.99 in 10.0 mi Calm Calm - N/A   Mostly Cloudy
8:16 AM 53.6 °F 44.6 °F 72% 30.00 in 10.0 mi Calm Calm - N/A   Mostly Cloudy
8:36 AM 55.4 °F 44.6 °F 67% 29.99 in 10.0 mi East 4.6 mph - N/A   Partly Cloudy
8:56 AM 55.4 °F 44.6 °F 67% 29.99 in 10.0 mi East 3.5 mph - N/A   Clear
9:16 AM 57.2 °F 44.6 °F 63% 29.99 in 10.0 mi East 3.5 mph - N/A   Clear
9:36 AM 57.2 °F 44.6 °F 63% 29.99 in 10.0 mi ENE 4.6 mph - N/A   Clear
9:56 AM 59.0 °F 44.6 °F 59% 29.98 in 10.0 mi East 3.5 mph - N/A   Clear
10:16 AM 60.8 °F 46.4 °F 59% 29.99 in 10.0 mi ENE 3.5 mph - N/A   Clear
10:36 AM 60.8 °F 46.4 °F 59% 29.99 in 10.0 mi ENE 3.5 mph - N/A   Clear
10:56 AM 60.8 °F 46.4 °F 59% 29.99 in 10.0 mi SE 3.5 mph - N/A   Clear
11:16 AM 62.6 °F 46.4 °F 55% 29.99 in 10.0 mi Calm Calm - N/A   Clear
11:36 AM 64.4 °F 46.4 °F 52% 29.98 in 10.0 mi Calm Calm - N/A   Clear
11:56 AM 64.4 °F 48.2 °F 56% 29.98 in 10.0 mi Calm Calm - N/A   Clear
12:16 PM 64.4 °F 46.4 °F 52% 29.98 in 10.0 mi Calm Calm - N/A   Clear
12:36 PM 66.2 °F 48.2 °F 52% 29.97 in 10.0 mi Calm Calm - N/A   Clear
12:56 PM 64.4 °F 46.4 °F 52% 29.97 in 10.0 mi Calm Calm - N/A   Clear
1:16 PM 66.2 °F 48.2 °F 52% 29.97 in 10.0 mi SSE 4.6 mph - N/A   Partly Cloudy
1:36 PM 66.2 °F 48.2 °F 52% 29.96 in 10.0 mi West 3.5 mph - N/A   Clear
1:56 PM 68.0 °F 48.2 °F 49% 29.96 in 10.0 mi WNW 3.5 mph - N/A   Clear
2:16 PM 69.8 °F 50.0 °F 49% 29.96 in 10.0 mi NW 4.6 mph - N/A   Clear
2:36 PM 69.8 °F 50.0 °F 49% 29.96 in 10.0 mi NW 4.6 mph - N/A   Clear
2:56 PM 69.8 °F 50.0 °F 49% 29.95 in 10.0 mi WSW 6.9 mph - N/A   Clear
3:16 PM 69.8 °F 50.0 °F 49% 29.95 in 10.0 mi West 5.8 mph - N/A   Partly Cloudy
3:36 PM 69.8 °F 50.0 °F 49% 29.95 in 10.0 mi SW 6.9 mph - N/A   Partly Cloudy
3:56 PM 69.8 °F 50.0 °F 49% 29.94 in 10.0 mi SW 6.9 mph - N/A   Scattered Clouds
4:16 PM 69.8 °F 48.2 °F 46% 29.94 in 10.0 mi West 4.6 mph - N/A   Partly Cloudy
4:36 PM 71.6 °F 48.2 °F 43% 29.94 in 10.0 mi West 3.5 mph - N/A   Clear
4:56 PM 69.8 °F 46.4 °F 43% 29.94 in 10.0 mi Calm Calm - N/A   Clear
5:16 PM 68.0 °F 46.4 °F 46% 29.94 in 10.0 mi North 5.8 mph - N/A   Partly Cloudy
5:36 PM 66.2 °F 46.4 °F 49% 29.93 in 10.0 mi NNE 4.6 mph - N/A   Scattered Clouds
5:56 PM 66.2 °F 48.2 °F 52% 29.93 in 10.0 mi East 3.5 mph - N/A   Overcast
6:16 PM 66.2 °F 48.2 °F 52% 29.93 in 10.0 mi SSE 3.5 mph - N/A   Scattered Clouds
6:36 PM 69.8 °F 46.4 °F 43% 29.93 in 10.0 mi Calm Calm - N/A   Clear
6:56 PM 69.8 °F 46.4 °F 43% 29.93 in 10.0 mi NNW 4.6 mph - N/A   Clear
7:16 PM 69.8 °F 46.4 °F 43% 29.93 in 10.0 mi NW 4.6 mph - N/A   Clear
7:36 PM 64.4 °F 48.2 °F 56% 29.93 in 10.0 mi SSW 3.5 mph - N/A   Partly Cloudy
7:56 PM 64.4 °F 48.2 °F 56% 29.93 in 10.0 mi Calm Calm - N/A   Clear
8:16 PM 64.4 °F 50.0 °F 59% 29.93 in 10.0 mi Calm Calm - N/A   Partly Cloudy
8:36 PM 62.6 °F 51.8 °F 68% 29.93 in 10.0 mi Calm Calm - N/A   Clear
8:56 PM 62.6 °F 51.8 °F 68% 29.94 in 10.0 mi West 3.5 mph - N/A   Clear
9:16 PM 60.8 °F 51.8 °F 72% 29.94 in 10.0 mi Calm Calm - N/A   Clear
9:36 PM 60.8 °F 50.0 °F 68% 29.94 in 10.0 mi Calm Calm - N/A   Clear
9:56 PM 57.2 °F 48.2 °F 72% 29.95 in 10.0 mi Calm Calm - N/A   Partly Cloudy
10:16 PM 57.2 °F 48.2 °F 72% 29.95 in 10.0 mi Calm Calm - N/A   Clear
10:36 PM 55.4 °F 48.2 °F 77% 29.95 in 10.0 mi Calm Calm - N/A   Clear
10:56 PM 53.6 °F 46.4 °F 77% 29.96 in 10.0 mi NE 3.5 mph - N/A   Clear
11:16 PM 53.6 °F 48.2 °F 82% 29.97 in 10.0 mi NE 3.5 mph - N/A   Clear
11:36 PM 53.6 °F 46.4 °F 77% 29.97 in 10.0 mi East 3.5 mph - N/A   Clear
11:56 PM 55.4 °F 46.4 °F 72% 29.97 in 10.0 mi Calm Calm - N/A   Partly Cloudy